Chubbuck, ID

4:14 PM MDT on October 01, 2016 (GMT -0600)
Pocatello Regional

Weather History for KPIH - February, 2012

Change the Weather History Date:

Tuesday, February 14, 2012

  Actual Average Record
Temperature  
Mean Temperature 30 °F 28 °F  
Max Temperature 36 °F 37 °F 56 °F (2015)
Min Temperature 24 °F 19 °F -6 °F (2004)
Degree Days  
Heating Degree Days 35 37  
Month to date heating degree days 477 540  
Since 1 July heating degree days 4488 4787  
Cooling Degree Days 0 0  
Month to date cooling degree days 0 0  
Year to date cooling degree days 0 0  
Moisture  
Dew Point 24 °F    
Average Humidity 76    
Maximum Humidity 92    
Minimum Humidity 59    
Precipitation  
Precipitation 0.00 in 0.03 in 0.43 in (1979)
Month to date precipitation 0.33 0.44  
Year to date precipitation 1.97 1.43  
Snow  
Snow 0.00 in - - ()
Month to date snowfall 1.5  
Since 1 July snowfall 9.3  
Snow Depth 0.00 in    
Sea Level Pressure  
Sea Level Pressure 29.87 in    
Wind  
Wind Speed 13 mph (SW)    
Max Wind Speed 24 mph    
Max Gust Speed 29 mph    
Visibility 10 miles    
Events      
T = Trace of Precipitation, MM = Missing Value Source: NWS Daily Summary

Daily Weather History Graph

Daily Weather History Graph

Search for Another Location

Airport or City:

Trip Planner

Search our weather history database for the weather conditions in past years. The results will help you decide how hot, cold, wet, or windy it might be!

Date:

Astronomy

Feb. 14, 2012 Rise Set
Actual Time 7:29 AM MST 5:59 PM MST
Civil Twilight 7:00 AM MST 6:29 PM MST
Nautical Twilight 6:27 AM MST 7:02 PM MST
Astronomical Twilight 5:54 AM MST 7:35 PM MST
Moon 1:22 AM MST (2/14) 11:04 AM MST (2/14)
Length of Visible Light 11h 28m
Length of Day
10h 30m
Waning Gibbous, 49% of the Moon is Illuminated
Feb 14
Waning Gibbous
Feb 21
New
Feb 29
First Quarter
Mar 8
Full
Mar 14
Last Quarter

Hourly Weather History & Observations

Time (MST) Temp. Windchill Dew Point Humidity Pressure Visibility Wind Dir Wind Speed Gust Speed Precip Events Conditions
12:53 AM 25.0 °F - 21.9 °F 88% 29.83 in 10.0 mi Calm Calm - N/A   Partly Cloudy
1:53 AM 26.6 °F 19.1 °F 24.8 °F 93% 29.79 in 10.0 mi South 6.9 mph - N/A   Partly Cloudy
2:34 AM 30.2 °F 22.6 °F 26.6 °F 86% 29.80 in 10.0 mi SW 8.1 mph - N/A   Scattered Clouds
2:53 AM 30.9 °F 21.7 °F 28.0 °F 89% 29.82 in 10.0 mi SW 11.5 mph - N/A   Mostly Cloudy
3:24 AM 30.2 °F 19.3 °F 28.4 °F 93% 29.80 in 9.0 mi SW 15.0 mph 21.9 mph N/A   Mostly Cloudy
3:53 AM 30.9 °F 19.8 °F 28.0 °F 89% 29.83 in 8.0 mi SW 16.1 mph - N/A   Overcast
4:02 AM 30.2 °F 20.2 °F 28.4 °F 93% 29.80 in 7.0 mi SW 12.7 mph - N/A   Overcast
4:53 AM 30.9 °F 19.8 °F 28.9 °F 92% 29.83 in 9.0 mi WSW 16.1 mph - N/A   Overcast
5:13 AM 30.2 °F 19.3 °F 28.4 °F 93% 29.80 in 10.0 mi SW 15.0 mph - N/A   Overcast
5:53 AM 30.0 °F 17.5 °F 27.0 °F 88% 29.86 in 10.0 mi WSW 19.6 mph 24.2 mph N/A   Overcast
6:53 AM 28.9 °F 16.9 °F 26.1 °F 89% 29.87 in 10.0 mi SW 17.3 mph 23.0 mph N/A   Overcast
7:53 AM 28.9 °F 16.9 °F 25.0 °F 85% 29.90 in 10.0 mi WSW 17.3 mph 25.3 mph N/A   Overcast
8:53 AM 28.9 °F 15.8 °F 24.1 °F 82% 29.92 in 10.0 mi SW 20.7 mph 24.2 mph N/A   Overcast
9:53 AM 28.9 °F 15.1 °F 24.1 °F 82% 29.93 in 10.0 mi SW 23.0 mph 28.8 mph N/A   Overcast
10:53 AM 30.0 °F 18.3 °F 24.1 °F 79% 29.93 in 10.0 mi SW 17.3 mph 24.2 mph N/A   Overcast
11:53 AM 32.0 °F 20.8 °F 24.1 °F 73% 29.94 in 10.0 mi WSW 17.3 mph 25.3 mph N/A   Overcast
12:53 PM 33.1 °F 21.2 °F 24.1 °F 70% 29.93 in 10.0 mi West 20.7 mph - N/A   Overcast
1:53 PM 34.0 °F 22.7 °F 23.0 °F 64% 29.91 in 10.0 mi WSW 19.6 mph 26.5 mph N/A   Overcast
2:53 PM 34.0 °F 23.4 °F 24.1 °F 67% 29.88 in 10.0 mi WSW 17.3 mph 23.0 mph N/A   Overcast
3:53 PM 35.1 °F 24.5 °F 23.0 °F 61% 29.88 in 10.0 mi SW 18.4 mph - N/A   Mostly Cloudy
4:53 PM 34.0 °F 24.6 °F 21.9 °F 61% 29.88 in 10.0 mi SW 13.8 mph - N/A   Mostly Cloudy
5:53 PM 33.1 °F 23.9 °F 21.9 °F 64% 29.89 in 10.0 mi SW 12.7 mph - N/A   Mostly Cloudy
6:53 PM 30.9 °F 22.8 °F 21.0 °F 67% 29.90 in 10.0 mi SSW 9.2 mph - N/A   Scattered Clouds
7:53 PM 28.9 °F 21.9 °F 19.9 °F 69% 29.90 in 10.0 mi SSW 6.9 mph - N/A   Partly Cloudy
8:53 PM 28.0 °F - 21.0 °F 75% 29.91 in 10.0 mi Calm Calm - N/A   Clear
9:53 PM 28.0 °F 24.2 °F 19.9 °F 72% 29.90 in 10.0 mi South 3.5 mph - N/A   Clear
10:53 PM 28.0 °F 20.8 °F 21.0 °F 75% 29.88 in 10.0 mi SSW 6.9 mph - N/A   Clear
11:53 PM 28.0 °F - 21.9 °F 78% 29.88 in 10.0 mi Calm Calm - N/A   Mostly Cloudy